Ana Sayfa
METAR-TAF:

METAR-TAF

Havaalanları :

Guadalupe Dağları Ulusal Parkı

Pine Springs, Teksas, Amerika Birleşik Devletleri

Enlem: 31-49-52N, Boylam: 104-48-32W, yükseklik: 1661 m

Güncel hava durumu gözlemi

Rapor saat 09:51 UTC de 1 saat ve 2 dakika önce yapıldı.
Rüzgar güneybatıdan 10 kt
Sıcaklık 3°C
Nem 35%
Basınç 1019 hPa
Görüş mesafesi: 16.1 km
Açık gökyüzü

METAR: KGDP 290951Z AUTO 22010KT 10SM CLR 03/M11 A3009 RMK AO2 SLP169 T00281106

Saat: 04:53 (10:53 UTC)


TAF: eksik

4.000'den fazla havaalanı için hava durumu gözlemleri ve tahminleri (METAR ve TAF raporları).

Kullanılabilir istasyonlar harita üzerinde sarı ve kırmızı noktalarla gösterilir.

İstasyonun adını görmek için fareyi noktanın üzerinde gezdirin.

Sonrasında hava gözlem ve tahminlerini görmek için tıklayın.

Haritayı değiştirmek için: yaklaştırmak için siyah artı işaretli yeşil düğmeye ve uzaklaştırmak için de eksi işaretli düğmeye hızla tıklayın; bitişik haritalar için yeşil okları kullanın.


METAR-TAF: